Location: Bremen
(53.0793°N, 8.8017°E)
Time: 21:22:35
(UTC+01:00)

S-56A Canister/Altair - Pass Details

Date: 03 December 2021
Orbit: 634 x 2499 km, 38.9° (Epoch: 26 January)

Event Time Altitude Azimuth Distance (km) Brightness Sun altitude
Rises 00:43:08 0° 221° (SW) 4,923 - -58.5°
Reaches altitude 10° 00:47:52 10° 207° (SSW) 3,551 - -58.4°
Maximum altitude 00:53:26 19° 166° (SSE) 2,466 - -58.1°
Drops below altitude 10° 00:57:51 10° 124° (ESE) 2,712 - -57.9°
Sets 01:00:50 0° 106° (ESE) 3,423 - -57.8°
